WA1TYB-13 Weather Reports


time (UTC)temp
F
wind
direction
speed
knots
gust
knots
rain 1hr
in
rain 24hr
in
rain mn
in
humidity
%
barometer
mb
20260508024102 56 115 0.9 1.7 0.00 0.06 0.06 59 1015.1
20260508023558 57 255 0.0 0.9 0.00 0.06 0.06 57 1014.5
20260508023056 57 259 0.9 1.7 0.00 0.06 0.06 56 1014.8
20260508022551 59 258 1.7 2.6 0.00 0.06 0.06 53 1014.7
20260508022049 60 258 5.2 6.1 0.00 0.06 0.06 49 1014.5
20260508021544 60 250 1.7 1.7 0.00 0.06 0.06 49 1014.7
20260508021040 60 244 0.9 0.9 0.00 0.06 0.06 49 1014.4
20260508020538 61 250 0.9 1.7 0.00 0.06 0.06 50 1014.5
20260508020036 61 255 0.9 1.7 0.00 0.06 0.06 47 1014.5
20260508015533 61 255 2.6 4.3 0.00 0.06 0.06 45 1014.3
20260508015030 61 251 2.6 4.3 0.00 0.06 0.06 45 1014.5
20260508014526 62 213 3.5 5.2 0.00 0.06 0.06 46 1014.4
20260508014023 62 239 4.3 5.2 0.00 0.06 0.06 45 1014.3
20260508013519 62 203 4.3 6.1 0.00 0.06 0.06 44 1014.3
20260508013016 62 216 5.2 6.1 0.00 0.06 0.06 45 1014.2
20260508012513 62 249 2.6 4.3 0.00 0.06 0.06 43 1014.2
20260508012011 62 237 2.6 2.6 0.00 0.06 0.06 42 1014.3
20260508011509 61 251 1.7 1.7 0.00 0.06 0.06 42 1014.7
20260508011006 61 242 2.6 2.6 0.00 0.06 0.06 44 1014.3
20260508010503 62 236 0.9 2.6 0.00 0.06 0.06 44 1014.4
20260508010000 62 222 2.6 5.2 0.00 0.06 0.06 43 1014.8
20260508005456 63 264 3.5 5.2 0.00 0.06 0.06 43 1014.5
20260508004953 63 281 2.6 5.2 0.00 0.06 0.06 44 1014.9
20260508004449 62 309 3.5 5.2 0.00 0.06 0.06 42 1014.9
20260508003946 62 265 3.5 6.1 0.00 0.06 0.06 43 1014.8
20260508003443 61 273 2.6 5.2 0.00 0.06 0.06 46 1014.9
20260508002940 61 310 2.6 4.3 0.00 0.06 0.06 47 1015.0
20260508002436 61 333 3.5 7.0 0.00 0.06 0.06 45 1014.8
20260508001932 61 334 6.1 8.7 0.00 0.06 0.06 44 1014.9
20260508001429 62 286 3.5 4.3 0.00 0.06 0.06 44 1015.1
20260508000925 61 8 5.2 7.0 0.00 0.06 0.06 44 1015.2
20260508000421 62 49 3.5 5.2 0.00 0.06 0.06 43 1014.9
20260507235918 61 1 1.7 2.6 0.00 0.06 0.06 42 1014.8
20260507235415 61 89 0.9 2.6 0.00 0.06 0.06 43 1014.9
20260507234912 62 159 3.5 5.2 0.00 0.06 0.06 44 1014.5
20260507234409 61 112 1.7 4.3 0.00 0.06 0.06 46 1014.4
20260507233906 61 105 1.7 5.2 0.00 0.06 0.06 45 1014.5
20260507233403 62 63 2.6 7.8 0.00 0.06 0.06 45 1014.8
20260507232901 62 62 3.5 7.0 0.00 0.06 0.06 45 1014.9
20260507232357 61 71 5.2 8.7 0.00 0.06 0.06 46 1015.0
20260507231855 61 55 5.2 9.6 0.00 0.06 0.06 48 1014.8
20260507231351 60 25 2.6 7.0 0.00 0.06 0.06 52 1014.8
20260507230847 60 63 6.1 8.7 0.00 0.06 0.06 51 1014.7
20260507230345 60 73 9.6 11.3 0.00 0.06 0.06 50 1014.4
20260507225844 60 78 4.3 9.6 0.00 0.06 0.06 52 1014.4
20260507225341 59 77 8.7 12.2 0.00 0.06 0.06 54 1014.4
20260507224837 59 75 11.3 14.8 0.00 0.06 0.06 57 1014.8
20260507224334 57 49 8.7 14.8 0.00 0.06 0.06 59 1014.9
20260507223830 58 76 12.2 17.4 0.00 0.06 0.06 59 1014.3
20260507223326 58 43 7.8 13.9 0.00 0.06 0.06 58 1014.7
20260507222824 58 48 8.7 18.2 0.00 0.06 0.06 57 1014.4
20260507222320 64 291 9.6 18.2 0.00 0.06 0.06 50 1014.5
20260507221817 64 256 0.9 4.3 0.00 0.06 0.06 41 1014.3
20260507221314 64 269 4.3 5.2 0.00 0.06 0.06 41 1014.1
20260507220809 64 20 2.6 4.3 0.00 0.06 0.06 40 1014.1
20260507220308 64 11 4.3 6.1 0.00 0.06 0.06 40 1014.1
20260507215804 65 291 1.7 2.6 0.00 0.06 0.06 39 1014.3
20260507215302 67 32 4.3 7.8 0.00 0.06 0.06 38 1014.2
20260507214758 66 3 0.9 4.3 0.00 0.06 0.06 38 1014.3
20260507214256 66 64 1.7 6.1 0.00 0.06 0.06 40 1014.4
20260507213750 66 357 5.2 7.8 0.00 0.06 0.06 39 1014.2
20260507213248 65 329 4.3 8.7 0.00 0.06 0.06 40 1014.4
20260507212745 64 75 6.1 7.8 0.00 0.06 0.06 42 1014.4
20260507212241 65 82 7.0 9.6 0.00 0.06 0.06 43 1014.4
20260507211738 66 66 3.5 7.0 0.00 0.06 0.06 42 1014.5
20260507211234 65 87 8.7 11.3 0.00 0.06 0.06 43 1014.5
20260507210731 65 353 4.3 8.7 0.00 0.06 0.06 45 1014.8
20260507210228 64 0 6.1 8.7 0.00 0.06 0.06 43 1014.8
20260507205724 66 11 7.0 14.8 0.00 0.06 0.06 44 1014.9
20260507205221 65 68 7.8 11.3 0.00 0.06 0.06 44 1014.8
20260507204717 66 8 8.7 9.6 0.00 0.06 0.06 43 1015.0
20260507204215 65 76 2.6 8.7 0.00 0.06 0.06 43 1014.7
20260507203713 65 346 6.1 7.8 0.00 0.06 0.06 42 1014.8
20260507203210 64 86 2.6 6.1 0.00 0.06 0.06 46 1014.9
20260507202706 63 54 3.5 5.2 0.00 0.06 0.06 44 1014.9
20260507202202 63 4 4.3 7.0 0.00 0.06 0.06 43 1015.0
20260507201657 64 331 2.6 7.0 0.00 0.06 0.06 44 1014.8
20260507201154 63 27 4.3 6.1 0.00 0.06 0.06 43 1015.0
20260507200650 63 299 4.3 7.8 0.00 0.06 0.06 43 1014.8
20260507200146 63 259 2.6 7.0 0.00 0.06 0.06 40 1014.9
20260507195643 63 297 7.0 7.8 0.00 0.06 0.06 42 1014.8
20260507195140 63 292 4.3 6.1 0.00 0.06 0.06 43 1014.8
20260507194637 65 350 1.7 7.8 0.00 0.06 0.06 45 1015.1
20260507194132 64 19 0.9 4.3 0.00 0.06 0.06 41 1015.0
20260507193630 64 326 4.3 7.0 0.00 0.06 0.06 44 1014.9
20260507193127 63 333 0.9 1.7 0.00 0.06 0.06 44 1015.2
20260507192623 63 292 1.7 7.8 0.00 0.06 0.06 49 1015.1
20260507192120 61 105 1.7 4.3 0.00 0.06 0.06 49 1015.1
20260507191616 61 358 3.5 4.3 0.00 0.06 0.06 49 1015.1
20260507191112 60 341 1.7 2.6 0.00 0.06 0.06 49 1015.2
20260507190610 61 335 3.5 6.1 0.00 0.06 0.06 50 1015.2
20260507190109 61 47 4.3 6.1 0.00 0.06 0.06 52 1015.4
20260507185607 61 47 3.5 5.2 0.00 0.06 0.06 51 1015.3
20260507185103 60 36 1.7 4.3 0.00 0.06 0.06 55 1015.6
20260507184601 60 17 1.7 5.2 0.00 0.06 0.06 56 1015.6
20260507184059 60 12 4.3 9.6 0.00 0.06 0.06 53 1015.7
20260507183555 61 56 7.8 11.3 0.00 0.06 0.06 51 1015.4
20260507183052 61 16 9.6 13.0 0.00 0.06 0.06 52 1015.7
20260507182548 60 359 6.1 9.6 0.00 0.06 0.06 57 1015.4
20260507182044 59 104 5.2 7.8 0.00 0.06 0.06 63 1015.6
20260507181541 58 53 2.6 9.6 0.00 0.06 0.06 64 1015.6
20260507181037 59 60 5.2 13.0 0.07 0.06 0.06 62 1015.6
20260507180534 58 6 7.8 12.2 0.12 0.06 0.06 60 1015.7
20260507180031 58 354 3.5 5.2 0.05 0.05 0.05 60 1015.7
20260507175527 59 89 2.6 7.8 0.00 0.04 0.04 56 1015.7
20260507175025 58 73 5.2 7.0 0.00 0.04 0.04 59 1015.4
20260507174521 59 107 5.2 9.6 0.00 0.04 0.04 60 1015.4
20260507174019 59 358 5.2 8.7 0.00 0.04 0.04 58 1015.3
20260507173516 61 326 6.1 9.6 0.00 0.04 0.04 52 1015.6
20260507173013 62 350 5.2 8.7 0.00 0.04 0.04 50 1015.1
20260507172509 62 335 6.1 7.8 0.00 0.04 0.04 49 1015.1
20260507172006 62 283 5.2 7.0 0.00 0.04 0.04 55 1015.1
20260507171501 62 259 2.6 5.2 0.00 0.04 0.04 55 1015.2
20260507171000 61 286 0.9 7.8 0.00 0.04 0.04 56 1015.2
20260507170455 61 232 3.5 7.0 0.00 0.04 0.04 57 1015.1
20260507165952 60 262 5.2 6.1 0.00 0.04 0.04 58 1015.2
20260507165448 60 186 0.0 0.9 0.00 0.04 0.04 58 1015.3
20260507164944 60 291 5.2 6.1 0.00 0.04 0.04 60 1015.6
20260507164441 60 226 4.3 5.2 0.00 0.04 0.04 59 1015.2
20260507163938 60 279 2.6 6.1 0.00 0.04 0.04 60 1015.2
20260507163435 59 200 2.6 2.6 0.00 0.04 0.04 62 1015.6
20260507162932 59 227 4.3 5.2 0.00 0.04 0.04 62 1015.7
20260507162427 59 226 0.9 4.3 0.00 0.04 0.04 62 1015.4
20260507161925 59 193 2.6 5.2 0.00 0.04 0.04 65 1015.4
20260507161421 58 167 3.5 5.2 0.00 0.04 0.04 64 1015.6
20260507160918 56 189 1.7 2.6 0.00 0.04 0.04 67 1015.8
20260507160414 56 278 1.7 2.6 0.00 0.04 0.04 67 1015.8
20260507155910 56 295 0.9 1.7 0.00 0.04 0.04 66 1015.9
20260507155406 56 342 0.0 1.7 0.00 0.04 0.04 66 1015.9
20260507154903 55 1 0.9 2.6 0.00 0.04 0.04 65 1015.7
20260507154400 56 323 2.6 4.3 0.00 0.04 0.04 65 1015.8
20260507153951 56 21 2.6 4.3 0.00 0.04 0.04 66 1015.6
20260507153857 56 21 2.6 4.3 0.00 0.04 0.04 66 1015.6
20260507153353 56 32 2.6 2.6 0.00 0.04 0.04 67 1015.8
20260507153215 55 2 2.6 2.6 0.00 0.04 0.04 69 1015.7
20260507152850 55 2 2.6 2.6 0.00 0.04 0.04 69 1015.7
20260507152559 54 321 1.7 1.7 0.00 0.04 0.04 68 1015.8
20260507152347 55 58 1.7 1.7 0.00 0.04 0.04 70 1015.8
20260507151843 54 321 1.7 1.7 0.00 0.04 0.04 68 1015.8
20260507151339 55 48 0.9 1.7 0.00 0.04 0.04 68 1015.8
20260507150836 54 196 0.9 1.7 0.00 0.04 0.04 69 1015.3
20260507150333 53 257 1.7 2.6 0.00 0.04 0.04 74 1015.6
20260507145829 53 296 1.7 2.6 0.00 0.04 0.04 78 1015.6
20260507145325 52 286 2.6 5.2 0.00 0.04 0.04 78 1015.9
20260507144823 52 322 6.1 7.0 0.00 0.04 0.04 78 1015.9
20260507144320 52 324 2.6 2.6 0.00 0.04 0.04 78 1015.7
20260507143816 52 320 2.6 2.6 0.00 0.04 0.04 77 1015.7
20260507143314 52 330 0.9 1.7 0.00 0.04 0.04 77 1015.3
20260507142809 51 294 0.9 1.7 0.00 0.04 0.04 77 1015.3
20260507142307 51 253 0.9 1.7 0.00 0.04 0.04 78 1015.2
20260507141803 51 272 0.9 2.6 0.00 0.04 0.04 79 1015.0
20260507141300 51 225 1.7 4.3 0.00 0.04 0.04 79 1014.8
20260507140755 51 218 1.7 2.6 0.00 0.04 0.04 80 1014.7
20260507140253 51 230 0.9 2.6 0.00 0.04 0.04 79 1014.9
20260507135750 51 248 2.6 2.6 0.00 0.04 0.04 80 1014.7
20260507135247 50 212 1.7 1.7 0.00 0.04 0.04 81 1014.9
20260507134743 50 188 0.9 1.7 0.00 0.04 0.04 81 1014.9
20260507134240 50 203 2.6 2.6 0.00 0.04 0.04 81 1014.9
20260507133736 49 202 0.9 1.7 0.00 0.04 0.04 82 1014.9
20260507133233 49 196 0.9 0.9 0.00 0.04 0.04 82 1014.7
20260507132731 49 227 1.7 1.7 0.00 0.04 0.04 82 1014.9
20260507132227 49 241 3.5 4.3 0.00 0.04 0.04 82 1014.8
20260507131724 49 187 2.6 4.3 0.00 0.04 0.04 81 1014.4
20260507131221 49 174 4.3 5.2 0.00 0.04 0.04 80 1014.1
20260507130718 49 130 1.7 2.6 0.00 0.04 0.04 80 1014.5
20260507130216 49 100 2.6 2.6 0.00 0.04 0.04 81 1014.8
20260507125714 49 81 2.6 4.3 0.00 0.04 0.04 81 1014.4
20260507125212 49 94 2.6 4.3 0.00 0.04 0.04 81 1014.3
20260507124708 49 83 0.9 2.6 0.00 0.04 0.04 81 1014.3
20260507124205 48 87 3.5 5.2 0.00 0.04 0.04 83 1014.2
20260507123703 48 72 2.6 5.2 0.00 0.04 0.04 83 1014.3
20260507123200 48 72 1.7 4.3 0.00 0.04 0.04 82 1014.4
20260507122655 48 58 2.6 4.3 0.00 0.04 0.04 81 1014.5
20260507122151 49 50 0.9 2.6 0.00 0.04 0.04 79 1014.7
20260507121647 48 29 0.0 0.9 0.00 0.04 0.04 80 1014.3
20260507121143 48 241 2.6 2.6 0.00 0.04 0.04 81 1014.3
20260507120640 48 195 0.9 2.6 0.00 0.04 0.04 81 1014.2
20260507120137 48 141 0.9 0.9 0.00 0.04 0.04 82 1014.0
20260507115633 48 88 0.0 0.9 0.00 0.04 0.04 83 1013.9
20260507115128 48 279 0.0 0.0 0.00 0.04 0.04 82 1014.1
20260507114625 48 259 0.0 0.9 0.00 0.04 0.04 82 1014.2
20260507114122 48 229 2.6 4.3 0.00 0.04 0.04 82 1014.1
20260507113619 48 290 0.9 0.9 0.00 0.04 0.04 81 1014.2
20260507113116 49 284 0.9 1.7 0.00 0.04 0.04 80 1014.1
20260507112614 49 286 0.0 1.7 0.00 0.04 0.04 80 1014.4
20260507112110 50 290 0.9 1.7 0.00 0.04 0.04 79 1014.3
20260507111608 50 275 0.9 2.6 0.00 0.04 0.04 79 1014.3
20260507111104 50 228 0.9 2.6 0.00 0.04 0.04 79 1014.3
20260507110601 50 228 2.6 5.2 0.00 0.04 0.04 78 1014.3
20260507110057 50 230 2.6 6.1 0.00 0.04 0.04 79 1014.4
20260507105554 50 216 1.7 2.6 0.00 0.04 0.04 78 1014.3
20260507105050 50 234 2.6 2.6 0.00 0.04 0.04 77 1014.2
20260507104548 50 92 0.9 0.9 0.00 0.04 0.04 78 1014.2
20260507104044 50 287 4.3 7.8 0.00 0.04 0.04 79 1014.5
20260507103540 50 245 8.7 11.3 0.00 0.04 0.04 79 1014.3
20260507103037 50 322 0.9 1.7 0.00 0.04 0.04 79 1014.4
20260507102534 50 353 2.6 5.2 0.00 0.04 0.04 78 1014.3
20260507102031 50 13 2.6 5.2 0.00 0.04 0.04 78 1014.4
20260507101525 50 32 3.5 7.0 0.00 0.04 0.04 77 1014.7
20260507101022 50 316 6.1 11.3 0.14 0.04 0.04 74 1014.8
20260507100519 50 310 6.1 12.2 0.26 0.04 0.04 77 1015.1
20260507100017 51 313 7.8 23.5 0.12 0.02 0.02 72 1015.6
20260507095515 51 340 20.9 27.8 0.00 0.00 0.00 73 1015.2
20260507095011 53 348 11.3 20.9 0.00 0.00 0.00 66 1015.1
20260507094508 54 310 17.4 33.0 0.00 0.00 0.00 62 1015.0
20260507094005 54 35 13.9 19.1 0.00 0.00 0.00 63 1014.9
20260507093502 53 313 7.8 11.3 0.00 0.00 0.00 67 1014.4
20260507093001 54 355 4.3 6.1 0.00 0.00 0.00 64 1013.8
20260507092457 55 316 3.5 4.3 0.00 0.00 0.00 61 1013.5
20260507091954 56 298 2.6 4.3 0.00 0.00 0.00 56 1013.2
20260507091450 56 329 2.6 5.2 0.00 0.00 0.00 55 1013.2
20260507090946 57 346 2.6 2.6 0.00 0.00 0.00 54 1013.0
20260507090442 58 266 4.3 5.2 0.00 0.00 0.00 49 1012.7
20260507085939 59 281 4.3 9.6 0.00 0.00 0.00 48 1012.6
20260507085436 58 274 5.2 7.8 0.00 0.00 0.00 47 1012.5
20260507084933 57 248 2.6 4.3 0.00 0.00 0.00 52 1012.4
20260507084430 56 233 2.6 2.6 0.00 0.00 0.00 53 1012.9
20260507083927 56 254 2.6 2.6 0.00 0.00 0.00 54 1012.7
20260507083423 56 239 2.6 2.6 0.00 0.00 0.00 54 1012.9
20260507082919 56 231 3.5 4.3 0.00 0.00 0.00 54 1012.7
20260507082416 56 254 2.6 4.3 0.00 0.00 0.00 56 1012.9
20260507081913 56 238 2.6 4.3 0.00 0.00 0.00 57 1012.9
20260507081408 56 217 1.7 2.6 0.00 0.00 0.00 58 1012.9
20260507080905 55 227 4.3 5.2 0.00 0.00 0.00 60 1012.6
20260507080402 54 221 2.6 4.3 0.00 0.00 0.00 62 1012.5
20260507075857 54 232 3.5 5.2 0.00 0.00 0.00 62 1012.6
20260507075353 53 236 1.7 2.6 0.00 0.00 0.00 65 1012.5
20260507074850 54 229 0.9 2.6 0.00 0.00 0.00 66 1012.7
20260507074347 54 212 3.5 4.3 0.00 0.00 0.00 64 1012.5
20260507073844 55 184 2.6 5.2 0.00 0.00 0.00 63 1012.5
20260507073341 55 193 4.3 5.2 0.00 0.00 0.00 60 1012.6
20260507072838 55 174 3.5 5.2 0.00 0.00 0.00 61 1012.5
20260507072336 54 209 2.6 4.3 0.00 0.00 0.00 63 1012.6
20260507071833 54 198 2.6 4.3 0.00 0.00 0.00 64 1012.4
20260507071330 54 226 1.7 2.6 0.00 0.00 0.00 66 1012.7
20260507070826 55 153 2.6 2.6 0.00 0.00 0.00 63 1012.4
20260507070324 55 248 1.7 1.7 0.00 0.00 0.00 61 1012.5
20260507065820 56 228 3.5 5.2 0.00 0.00 0.00 59 1012.5
20260507065317 57 236 4.3 7.0 0.00 0.00 0.00 54 1012.6
20260507064814 57 241 7.8 9.6 0.00 0.00 0.00 55 1012.3
20260507064313 57 339 0.9 2.6 0.00 0.00 0.00 54 1012.1
20260507063810 57 100 4.3 6.1 0.00 0.00 0.00 53 1012.4
20260507063307 57 342 2.6 5.2 0.00 0.00 0.00 54 1012.3
20260507062803 57 6 4.3 8.7 0.00 0.00 0.00 54 1012.3
20260507062301 58 74 4.3 12.2 0.00 0.00 0.00 56 1012.9
20260507061759 58 339 5.2 11.3 0.00 0.00 0.00 54 1013.0
20260507061256 58 324 8.7 20.0 0.00 0.00 0.00 55 1013.6
20260507060754 57 354 8.7 12.2 0.00 0.00 0.00 56 1013.1
20260507060250 60 316 10.4 21.7 0.00 0.00 0.00 48 1013.0
20260507055747 59 301 12.2 14.8 0.00 0.00 0.00 49 1013.2
20260507055242 59 327 7.0 9.6 0.00 0.00 0.00 52 1013.2
20260507054739 60 332 7.8 13.9 0.00 0.00 0.00 50 1013.2
20260507054236 61 276 8.7 13.0 0.00 0.00 0.00 43 1012.9
20260507053733 61 330 4.3 14.8 0.00 0.00 0.00 45 1012.7
20260507053231 62 327 10.4 14.8 0.00 0.00 0.00 44 1012.7
20260507052730 63 317 9.6 20.9 0.00 0.00 0.00 37 1012.4
20260507052225 62 302 7.8 19.1 0.00 0.00 0.00 39 1012.6
20260507051724 61 289 21.7 29.5 0.00 0.00 0.00 39 1012.5
20260507051220 60 315 20.9 27.8 0.00 0.00 0.00 43 1012.5
20260507050717 60 318 9.6 14.8 0.00 0.00 0.00 45 1012.9
20260507050214 60 305 10.4 17.4 0.00 0.00 0.00 46 1012.9
20260507045711 61 358 7.8 12.2 0.00 0.00 0.00 44 1013.0
20260507045207 60 328 7.8 12.2 0.00 0.00 0.00 44 1012.6
20260507044704 61 346 8.7 13.9 0.00 0.00 0.00 43 1013.0
20260507044201 62 328 10.4 20.0 0.00 0.00 0.00 42 1012.9
20260507043657 62 300 13.9 21.7 0.00 0.00 0.00 40 1013.0
20260507043154 63 291 9.6 12.2 0.00 0.00 0.00 38 1012.5
20260507042650 63 295 8.7 13.0 0.00 0.00 0.00 38 1012.5
20260507042145 63 291 6.1 11.3 0.00 0.00 0.00 38 1012.1
20260507041643 63 299 7.8 12.2 0.00 0.00 0.00 38 1012.5
20260507041139 63 308 9.6 13.0 0.00 0.00 0.00 38 1012.4
20260507040636 63 305 8.7 14.8 0.00 0.00 0.00 38 1012.3
20260507040132 63 293 9.6 11.3 0.00 0.00 0.00 38 1012.3
20260507035628 63 299 7.8 9.6 0.00 0.00 0.00 38 1012.5
20260507035124 64 279 4.3 11.3 0.00 0.00 0.00 38 1012.4
20260507034621 64 283 7.0 8.7 0.00 0.00 0.00 37 1012.3
20260507034119 64 282 8.7 13.0 0.00 0.00 0.00 37 1012.0
20260507033617 64 289 8.7 9.6 0.00 0.00 0.00 37 1012.0
20260507033114 64 280 8.7 11.3 0.00 0.00 0.00 37 1011.8
20260507032611 64 286 6.1 9.6 0.00 0.00 0.00 37 1011.8
20260507032107 64 268 7.0 9.6 0.00 0.00 0.00 37 1011.7
20260507031604 64 278 7.8 11.3 0.00 0.00 0.00 36 1011.5
20260507031101 64 293 9.6 13.9 0.00 0.00 0.00 35 1011.5
20260507030557 64 283 8.7 13.0 0.00 0.00 0.00 35 1011.6
20260507030055 64 281 8.7 11.3 0.00 0.00 0.00 36 1011.5
20260507025552 65 290 7.8 13.0 0.00 0.00 0.00 35 1011.7
20260507025049 65 274 8.7 18.2 0.00 0.00 0.00 35 1012.0
20260507024547 65 299 8.7 18.2 0.00 0.00 0.00 35 1011.4